Weather History for KCDR - May, 2014

Change the Weather History Date:

Saturday, May 17, 2014

  Actual Average Record
Temperature  
Mean Temperature 53 °F 56 °F  
Max Temperature 66 °F 71 °F 95 °F (1934)
Min Temperature 39 °F 42 °F 30 °F (1969)
Degree Days  
Heating Degree Days 12 9  
Month to date heating degree days 269 204  
Since 1 July heating degree days 7187 6967  
Cooling Degree Days 0 1  
Month to date cooling degree days 0 1  
Year to date cooling degree days 1 3  
Growing Degree Days 2 (Base 50)    
Moisture  
Dew Point 42 °F    
Average Humidity 69    
Maximum Humidity 100    
Minimum Humidity 37    
Precipitation  
Precipitation 0.00 in 0.08 in 1.18 in (1983)
Month to date precipitation 2.71 1.42  
Year to date precipitation 7.01 5.60  
Sea Level Pressure  
Sea Level Pressure 30.04 in    
Wind  
Wind Speed 5 mph (SSW)    
Max Wind Speed 20 mph    
Max Gust Speed 26 mph    
Visibility 10 miles    
Events      
T = Trace of Precipitation, MM = Missing Value Source: NWS Daily Summary

Daily Weather History Graph

Daily Weather History Graph

Search for Another Location

Airport or City:

Trip Planner

Search our weather history database for the weather conditions in past years. The results will help you decide how hot, cold, wet, or windy it might be!

Date:

Astronomy

May. 17, 2014 Rise Set
Actual Time 5:27 AM MDT 8:10 PM MDT
Civil Twilight 4:54 AM MDT 8:43 PM MDT
Nautical Twilight 4:13 AM MDT 9:24 PM MDT
Astronomical Twilight 3:26 AM MDT 10:12 PM MDT
Moon 11:12 PM MDT (5/17) 8:13 AM MDT (5/17)
Length of Visible Light 15h 48m
Length of Day
14h 43m
Waning Gibbous, 89% of the Moon is Illuminated
May 17
Waning Gibbous
May 21
Last Quarter
May 28
New
Jun 5
First Quarter
Jun 12
Full

Hourly Weather History & Observations

Time (MDT) Temp. Windchill Dew Point Humidity Pressure Visibility Wind Dir Wind Speed Gust Speed Precip Events Conditions
12:53 AM 39.9 °F 37.8 °F 39.0 °F 97% 30.14 in 10.0 mi West 3.5 mph - N/A   Scattered Clouds
1:53 AM 39.0 °F 36.8 °F 37.9 °F 96% 30.13 in 10.0 mi WSW 3.5 mph - N/A   Clear
2:53 AM 39.9 °F - 37.9 °F 93% 30.11 in 10.0 mi Calm Calm - N/A   Clear
3:53 AM 39.9 °F - 37.9 °F 93% 30.10 in 10.0 mi Calm Calm - N/A   Clear
4:53 AM 39.9 °F 37.8 °F 39.0 °F 97% 30.09 in 10.0 mi SW 3.5 mph - N/A   Clear
5:53 AM 41.0 °F - 39.0 °F 93% 30.08 in 10.0 mi Calm Calm - N/A   Mostly Cloudy
6:53 AM 43.0 °F - 41.0 °F 93% 30.09 in 10.0 mi Calm Calm - N/A   Partly Cloudy
7:53 AM 50.0 °F - 44.1 °F 80% 30.07 in 10.0 mi SSW 3.5 mph - N/A   Clear
8:53 AM 52.0 °F - 43.0 °F 71% 30.07 in 10.0 mi West 4.6 mph - N/A   Mostly Cloudy
9:53 AM 55.9 °F - 44.1 °F 64% 30.06 in 10.0 mi WSW 3.5 mph - N/A   Clear
10:53 AM 59.0 °F - 44.1 °F 58% 30.05 in 10.0 mi Calm Calm - N/A   Mostly Cloudy
11:53 AM 61.0 °F - 42.1 °F 50% 30.05 in 10.0 mi Variable 5.8 mph - N/A   Scattered Clouds
12:53 PM 62.1 °F - 42.1 °F 48% 30.04 in 10.0 mi Variable 3.5 mph - N/A   Partly Cloudy
1:53 PM 63.0 °F - 39.9 °F 43% 30.03 in 10.0 mi NE 6.9 mph - N/A   Overcast
2:53 PM 64.0 °F - 37.9 °F 38% 30.01 in 10.0 mi Variable 4.6 mph - N/A   Overcast
3:53 PM 66.0 °F - 43.0 °F 43% 29.99 in 10.0 mi SE 5.8 mph - N/A   Scattered Clouds
4:53 PM 64.9 °F - 43.0 °F 45% 29.98 in 10.0 mi Calm Calm - N/A   Partly Cloudy
5:53 PM 64.9 °F - 43.0 °F 45% 29.98 in 10.0 mi South 5.8 mph - N/A   Partly Cloudy
6:53 PM 63.0 °F - 44.1 °F 50% 29.98 in 10.0 mi South 9.2 mph - N/A   Partly Cloudy
8:53 PM 53.1 °F - 44.1 °F 71% 29.99 in 10.0 mi South 9.2 mph - N/A   Clear
9:53 PM 54.0 °F - 45.0 °F 72% 29.99 in 10.0 mi South 13.8 mph - N/A   Clear
10:53 PM 53.1 °F - 44.1 °F 71% 29.97 in 10.0 mi South 15.0 mph - N/A   Clear
11:53 PM 52.0 °F - 44.1 °F 74% 29.95 in 10.0 mi South 17.3 mph - N/A   Clear